Stations météo

réclame
Mon MeteoGroup
Greifswalder Oie, Allemagne (10097): Température de l'air & dewpoint: 11.11.2019 22:00:00 - 17.11.2019 22:00:00 (CET)Greifswalder Oie, Allemagne (10097): Température de l'air 5cm & Température de l'air -5cm: 11.11.2019 22:00:00 - 17.11.2019 22:00:00 (CET)Greifswalder Oie, Allemagne (10097): Température de l'air -20cm & Température de l'air -100cm: 11.11.2019 22:00:00 - 17.11.2019 22:00:00 (CET)Greifswalder Oie, Allemagne (10097): water temperature: 11.11.2019 22:00:00 - 17.11.2019 22:00:00 (CET)Greifswalder Oie, Allemagne (10097): Vitesse du vent & gusts: 11.11.2019 22:00:00 - 17.11.2019 22:00:00 (CET)Greifswalder Oie, Allemagne (10097): Direction du vent: 11.11.2019 22:00:00 - 17.11.2019 22:00:00 (CET)Greifswalder Oie, Allemagne (10097): reduced air pressure: 11.11.2019 22:00:00 - 17.11.2019 22:00:00 (CET)Greifswalder Oie, Allemagne (10097): visibility: 11.11.2019 22:00:00 - 17.11.2019 22:00:00 (CET)Greifswalder Oie, Allemagne (10097): Ensoleillement: 11.11.2019 22:00:00 - 17.11.2019 22:00:00 (CET)Greifswalder Oie, Allemagne (10097): Quantités de précipitations: 11.11.2019 22:00:00 - 17.11.2019 22:00:00 (CET)
Date & Time tt [°C] td [°C] tt 5cm [°C] tt -5cm [°C] tt -20cm [°C] tt -100cm [°C] tw [°C] ff [km/h] ff [knt] fx [km/h] fx [knt] dd ppp [hPa] vv [km] sd [min] rr [mm]
17.11.2019 22:00:00 9,1 7,6 8,0 6,7 7,0 9,6 7,8 28 15 39 21 E 1010,3 13 0 0,0
17.11.2019 21:00:00 9,2 7,5 8,0 6,8 7,0 9,6 7,9 29 15 43 23 E 1011,1 18 0 0,0
17.11.2019 20:00:00 9,1 7,2 8,0 6,8 6,9 9,6 7,8 27 15 50 27 ENE 1011,7 25 0 0,0
17.11.2019 19:00:00 9,0 6,6 8,4 6,9 6,8 9,6 7,8 35 19 50 27 ENE 1012,2 29 0 0,0
17.11.2019 18:00:00 8,9 5,5 8,4 6,8 6,8 9,6 7,8 36 19 54 29 ENE 1012,9 41 0 0,0
17.11.2019 17:00:00 8,7 5,7 8,3 6,7 6,7 9,6 7,8 24 13 39 21 ENE 1013,7 34 0 0,0
17.11.2019 16:00:00 8,3 5,7 7,9 6,6 6,6 9,6 7,8 19 10 32 18 NE 1014,3 31 0 0,0
17.11.2019 15:00:00 7,8 5,4 7,3 6,5 6,4 9,6 8,0 19 11 29 16 ENE 1015,4 23 0 0,0
17.11.2019 14:00:00 7,6 5,2 7,4 6,5 6,3 9,6 7,8 16 9 21 12 ENE 1015,6 16 0 0,0
17.11.2019 13:00:00 7,3 4,2 7,1 6,3 6,1 9,6 7,8 13 7 18 10 E 1016,5 22 0 0,0
17.11.2019 12:00:00 6,9 4,5 7,1 6,1 5,9 9,6 7,8 11 6 19 11 ESE 1016,9 12 0 0,0
17.11.2019 11:00:00 6,4 3,5 6,9 5,4 5,8 9,6 7,8 11 6 19 10 SE 1017,1 20 0 0,0
17.11.2019 10:00:00 5,8 4,1 5,4 4,3 5,7 9,6 7,7 9 5 19 10 SSE 1017,5 12 0 0,0
17.11.2019 09:00:00 5,3 3,7 4,3 3,7 5,8 9,6 7,6 13 7 24 13 S 1017,5 13 0 0,0
17.11.2019 08:00:00 5,2 2,9 3,9 3,4 5,9 9,6 7,6 16 8 29 16 S 1016,8 18 0 0,0
17.11.2019 07:00:00 4,9 2,9 3,8 3,5 6,1 9,6 7,8 20 11 28 15 SSW 1016,6 15 0 0,0
17.11.2019 06:00:00 4,9 2,9 3,8 3,6 6,2 9,6 7,6 19 11 32 17 S 1016,2 14 0 0,0
17.11.2019 05:00:00 4,9 2,8 3,7 3,8 6,4 9,6 7,8 19 10 32 17 S 1015,3 15 0 0,0
17.11.2019 04:00:00 5,1 2,5 4,0 4,0 6,6 9,6 7,8 26 14 37 20 SSW 1015,2 19 0 0,0
17.11.2019 03:00:00 5,2 2,5 4,3 4,2 6,8 9,6 8,0 31 17 43 23 SSW 1014,5 20 0 0,0
17.11.2019 02:00:00 5,5 2,5 4,6 4,4 6,9 9,6 8,0 32 17 40 22 SSW 1014,0 22 0 0,0
17.11.2019 01:00:00 5,8 2,7 4,8 4,7 7,1 9,6 8,2 34 18 52 28 SW 1013,0 25 0 0,0
17.11.2019 00:00:00 6,2 2,6 5,3 5,0 7,3 9,6 8,2 44 24 55 30 SW 1012,4 26 0 0,0
16.11.2019 23:00:00 6,1 3,5 5,4 5,3 7,5 9,6 8,2 39 21 52 28 SSW 1012,1 17 0 0,0
16.11.2019 22:00:00 6,6 3,1 5,9 5,7 7,7 9,6 8,4 43 23 56 30 SSW 1011,7 24 0 0,0
16.11.2019 21:00:00 7,0 4,0 6,7 6,3 7,8 9,5 8,5 44 24 56 30 SW 1010,5 20 0 0,0
16.11.2019 20:00:00 6,8 3,7 6,6 6,4 8,0 9,5 8,4 45 25 61 33 SW 1009,6 28 0 0,0
16.11.2019 19:00:00 6,6 3,4 6,3 6,6 8,1 9,5 8,5 45 24 64 35 SW 1007,9 42 0 0,0
16.11.2019 18:00:00 6,7 4,2 6,5 6,9 8,3 9,5 8,6 45 24 68 37 SW 1007,1 50 0 0,0
16.11.2019 17:00:00 7,0 5,2 6,6 7,7 8,4 9,5 8,7 45 25 63 34 SSW 1006,4 23 0 0,0
16.11.2019 16:00:00 8,2 6,9 8,0 8,2 8,4 9,5 8,7 38 21 60 32 SSW 1005,2 19 0 0,0
16.11.2019 15:00:00 9,3 7,5 8,8 8,8 8,4 9,5 8,9 42 23 53 29 SSW 1003,9 18 0 0,0
16.11.2019 14:00:00 9,8 8,3 9,2 9,0 8,3 9,5 8,9 21 12 30 16 S 1002,7 10 0 0,0
16.11.2019 13:00:00 9,3 8,3 9,1 9,1 8,1 9,5 8,9 13 7 29 16 S 1002,7 6 0 0,0
16.11.2019 12:00:00 9,0 8,2 8,8 8,4 8,1 9,5 8,8 23 13 35 19 SE 1002,9 6 0 0,0
16.11.2019 11:00:00 8,6 8,2 8,5 8,3 8,0 9,5 8,8 23 12 37 20 SE 1003,2 4,0 0 1,8
16.11.2019 10:00:00 9,1 7,9 8,5 8,2 8,0 9,5 8,8 21 11 32 17 SE 1003,2 8 0 0,4
16.11.2019 09:00:00 9,2 7,8 8,9 8,0 7,9 9,5 8,7 22 12 34 19 ESE 1003,8 8 0 0,0
16.11.2019 08:00:00 9,1 8,0 8,6 7,8 7,9 9,5 8,7 24 13 36 19 ESE 1003,8 6 0 0,0
16.11.2019 07:00:00 9,2 8,0 8,8 8,0 7,9 9,5 8,8 23 13 37 20 ESE 1004,1 6 0 0,0
16.11.2019 06:00:00 9,2 8,0 8,7 7,7 7,9 9,5 8,8 26 14 35 19 ESE 1004,4 6 0 0,0
16.11.2019 05:00:00 9,2 7,9 8,5 8,2 7,9 9,5 8,8 25 13 42 23 ESE 1004,7 7 0 0,0
16.11.2019 04:00:00 9,4 7,9 9,1 8,1 7,8 9,6 8,8 29 16 43 23 ESE 1005,4 7 0 0,0
16.11.2019 03:00:00 9,5 8,0 9,1 8,1 7,8 9,6 8,8 29 15 42 23 ESE 1005,7 8 0 0,0
16.11.2019 02:00:00 9,5 8,0 9,2 8,1 7,7 9,6 8,8 27 14 35 19 ESE 1006,4 8 0 0,0
16.11.2019 01:00:00 9,5 8,1 9,2 8,1 7,6 9,6 8,8 23 12 32 17 ESE 1006,9 8 0 0,0
16.11.2019 00:00:00 9,4 8,1 9,1 8,0 7,6 9,6 8,6 22 12 33 18 E 1007,2 10 0 0,0
15.11.2019 23:00:00 9,4 8,0 9,1 7,9 7,5 9,6 8,6 22 12 36 19 E 1007,4 10 0 0,0
15.11.2019 22:00:00 9,3 7,8 9,0 7,8 7,4 9,6 8,4 23 13 37 20 ESE 1008,0 12 0 0,0
15.11.2019 21:00:00 9,2 7,7 8,8 7,7 7,3 9,6 8,4 24 13 39 21 E 1007,9 13 0 0,0
15.11.2019 20:00:00 9,1 7,5 8,7 7,6 7,3 9,6 8,4 28 15 42 23 E 1008,2 16 0 0,0
15.11.2019 19:00:00 9,0 7,2 8,7 7,6 7,2 9,6 8,5 29 16 42 23 E 1008,0 17 0 0,0
15.11.2019 18:00:00 8,9 7,1 8,6 7,5 7,1 9,6 8,4 27 15 43 23 ESE 1008,7 19 0 0,0
15.11.2019 17:00:00 9,0 7,3 8,7 7,6 7,0 9,6 8,5 30 16 53 29 ESE 1008,6 19 0 0,0
15.11.2019 16:00:00 9,1 7,4 8,8 7,7 6,9 9,6 8,2 38 21 55 30 ESE 1008,3 23 0 0,0
15.11.2019 15:00:00 9,0 7,3 8,9 7,6 6,7 9,6 8,2 43 23 59 32 E 1008,4 21 0 0,0
15.11.2019 14:00:00 8,6 6,8 8,7 7,4 6,5 9,6 8,1 41 22 58 31 E 1009,1 22 0 0,0
15.11.2019 13:00:00 8,1 6,2 8,3 7,1 6,3 9,6 8,1 44 24 56 30 E 1009,4 25 0 0,0
15.11.2019 12:00:00 8,1 6,3 8,2 6,7 6,1 9,6 8,0 43 23 59 32 E 1009,8 22 0 0,0
15.11.2019 11:00:00 7,5 5,6 7,6 6,0 5,9 9,7 8,0 38 21 55 30 E 1010,8 27 0 0,0
15.11.2019 10:00:00 6,6 4,6 6,6 5,4 5,8 9,7 8,0 44 24 61 33 E 1011,1 25 0 0,0
15.11.2019 09:00:00 6,0 3,4 6,0 5,0 5,8 9,7 7,9 43 23 61 33 E 1011,9 25 0 0,0
15.11.2019 08:00:00 5,6 3,0 5,4 4,7 5,8 9,7 7,9 43 23 61 33 E 1012,2 18 0 0,0
15.11.2019 07:00:00 5,3 2,7 5,0 4,5 5,8 9,7 7,9 41 22 56 30 ESE 1011,9 12 0 0,0
15.11.2019 06:00:00 5,2 2,5 4,9 4,4 5,8 9,7 8,0 37 20 55 30 E 1012,5 11 0 0,0
15.11.2019 05:00:00 5,1 2,3 4,7 4,2 5,8 9,7 8,1 36 20 51 28 E 1013,0 15 0 0,0
15.11.2019 04:00:00 4,9 2,0 4,5 4,2 5,9 9,7 8,2 34 19 53 29 E 1013,0 13 0 0,0
15.11.2019 03:00:00 4,7 1,8 4,4 4,3 6,0 9,7 8,2 32 17 45 24 E 1013,6 15 0 0,0
15.11.2019 02:00:00 4,6 2,4 4,3 4,4 6,0 9,7 8,3 29 15 44 24 ESE 1014,0 16 0 0,0
15.11.2019 01:00:00 4,4 2,8 4,2 4,4 6,1 9,7 8,3 27 14 43 23 ESE 1014,1 9 0 0,0
15.11.2019 00:00:00 4,6 3,4 4,1 4,3 6,2 9,7 8,3 26 14 41 22 ESE 1013,8 8 0 0,0
14.11.2019 23:00:00 5,3 3,8 4,0 4,3 6,3 9,7 8,4 25 13 34 18 ESE 1014,0 9 0 0,0
14.11.2019 22:00:00 5,3 3,7 4,4 4,3 6,5 9,7 8,4 21 11 35 19 ESE 1014,2 13 0 0,0
14.11.2019 21:00:00 5,7 3,6 4,2 4,6 6,7 9,7 8,5 19 10 34 18 ESE 1014,1 16 0 0,0
14.11.2019 20:00:00 6,5 4,2 4,7 4,9 6,8 9,7 8,5 22 12 35 19 ESE 1014,1 23 0 0,0
14.11.2019 19:00:00 6,9 3,9 5,3 5,2 7,0 9,7 8,6 25 13 37 20 ESE 1013,2 23 0 0,0
14.11.2019 18:00:00 7,3 4,5 5,0 5,6 7,2 9,8 8,5 18 10 29 16 ESE 1012,8 22 0 0,0
14.11.2019 17:00:00 7,6 4,4 6,1 6,2 7,4 9,8 8,6 22 12 31 17 SE 1012,7 27 0 0,0
14.11.2019 16:00:00 7,4 4,8 6,0 7,4 7,4 9,8 8,7 15 8 22 12 SE 1012,3 14 54 0,0
14.11.2019 15:00:00 7,5 4,0 8,3 8,5 7,3 9,8 8,7 13 7 21 11 SE 1011,6 29 60 0,0
14.11.2019 14:00:00 8,0 4,4 9,5 9,8 6,9 9,8 8,7 11 6 19 10 SSE 1011,1 22 60 0,0
14.11.2019 13:00:00 8,1 4,3 10,2 9,2 6,5 9,8 8,7 9 5 14 8 SSW 1010,7 25 59 0,0
14.11.2019 12:00:00 7,2 3,8 8,6 7,9 6,2 9,8 8,5 9 5 16 9 SSW 1010,2 21 60 0,0
14.11.2019 11:00:00 6,5 4,1 7,4 5,9 6,0 9,8 8,4 15 8 23 13 SSW 1009,6 20 30 0,0
14.11.2019 10:00:00 5,8 4,0 5,7 5,5 6,0 9,8 8,3 20 11 26 14 SSW 1008,8 19 19 0,0
14.11.2019 09:00:00 5,6 3,9 5,5 5,1 5,9 9,8 8,2 23 12 29 16 SSW 1008,0 17 0 0,0
14.11.2019 08:00:00 5,7 3,9 5,4 4,9 5,9 9,8 8,2 26 14 30 16 SSW 1007,1 16 0 0,0
14.11.2019 07:00:00 5,6 3,9 5,3 4,9 5,9 9,9 8,3 22 12 26 14 SSW 1006,1 18 0 0,0
14.11.2019 06:00:00 5,7 3,8 5,4 4,9 5,9 9,9 8,4 21 11 26 14 SSW 1005,3 18 0 0,0
14.11.2019 05:00:00 5,6 3,8 5,1 4,8 5,9 9,9 8,4 21 11 27 15 SW 1004,7 20 0 0,0
14.11.2019 04:00:00 5,5 3,5 5,2 4,7 5,9 9,9 8,4 22 12 30 16 SW 1004,1 22 0 0,0
14.11.2019 03:00:00 5,6 3,3 5,2 4,8 5,9 9,9 8,4 23 13 30 16 SW 1003,6 25 0 0,0
14.11.2019 02:00:00 5,6 3,2 5,3 4,7 5,9 9,9 8,3 23 12 29 16 SW 1003,3 25 0 0,0
14.11.2019 01:00:00 5,9 3,5 5,4 4,6 5,9 9,9 8,4 18 10 23 12 SW 1002,9 28 0 0,0
14.11.2019 00:00:00 5,6 3,5 5,2 4,4 5,9 9,9 8,4 20 11 25 14 SSW 1002,9 22 0 0,0
13.11.2019 23:00:00 5,7 3,4 4,8 4,3 6,0 9,9 8,3 20 11 26 14 SSW 1002,8 23 0 0,0
13.11.2019 22:00:00 5,7 3,6 4,6 4,4 6,0 9,9 8,3 21 12 28 15 SSW 1002,7 20 0 0,0
13.11.2019 21:00:00 5,9 3,7 5,2 4,6 6,1 9,9 8,3 22 12 29 15 SSW 1002,7 20 0 0,0
13.11.2019 20:00:00 6,0 3,9 5,2 4,6 6,2 10,0 8,3 16 9 27 15 S 1002,5 22 0 0,0
13.11.2019 19:00:00 6,1 3,9 5,1 4,6 6,3 10,0 8,1 19 10 29 16 S 1002,5 26 0 0,0
13.11.2019 18:00:00 6,2 3,8 5,1 4,8 6,4 10,0 8,2 16 9 26 14 S 1002,4 25 0 0,0
13.11.2019 17:00:00 6,2 3,3 5,3 5,2 6,4 10,0 8,2 15 8 25 14 S 1002,1 26 0 0,0
13.11.2019 16:00:00 6,3 2,9 5,6 5,7 6,4 10,0 8,2 16 9 29 16 S 1001,9 29 0 0,0
13.11.2019 15:00:00 6,3 3,7 5,9 6,2 6,3 10,0 8,3 13 7 27 15 S 1001,6 23 0 0,0
13.11.2019 14:00:00 6,2 3,2 6,4 6,4 6,2 10,0 8,3 14 7 23 13 S 1001,8 22 0 0,0
13.11.2019 13:00:00 5,9 3,4 5,9 6,0 6,1 10,0 8,3 12 6 25 14 S 1002,1 19 0 0,0
13.11.2019 12:00:00 5,7 3,4 5,9 5,9 6,0 10,0 8,2 16 9 27 14 SSW 1001,8 16 8 0,0
13.11.2019 11:00:00 5,7 3,2 5,8 5,4 5,9 10,1 8,1 18 10 28 15 SSW 1002,2 15 30 0,0
13.11.2019 10:00:00 5,6 3,5 5,5 4,9 5,8 10,1 8,0 22 12 30 16 SSW 1002,8 16 0 0,0
13.11.2019 09:00:00 5,5 3,6 5,1 4,5 5,8 10,1 8,0 16 9 26 14 S 1002,8 14 0 0,0
13.11.2019 08:00:00 5,4 3,4 4,6 4,4 5,9 10,1 7,9 17 9 31 17 S 1002,9 16 0 0,0
13.11.2019 07:00:00 5,5 3,5 5,1 4,5 5,9 10,1 7,9 21 11 30 16 S 1003,0 15 0 0,0
13.11.2019 06:00:00 5,5 3,4 5,1 4,6 5,9 10,1 7,8 20 11 34 18 S 1002,4 16 0 0,0
13.11.2019 05:00:00 5,6 3,5 4,9 4,5 5,9 10,1 7,8 18 10 31 17 S 1002,3 17 0 0,0
13.11.2019 04:00:00 5,6 3,6 5,1 4,6 5,9 10,1 7,7 19 10 32 17 S 1002,8 16 0 0,0
13.11.2019 03:00:00 5,8 3,7 5,2 4,6 5,9 10,2 7,8 19 10 33 18 S 1002,6 17 0 0,0
13.11.2019 02:00:00 5,8 3,5 5,2 4,6 5,9 10,2 7,8 21 12 33 18 S 1003,2 19 0 0,0
13.11.2019 01:00:00 6,1 3,4 5,5 4,7 6,0 10,2 7,9 18 10 31 17 S 1003,8 22 0 0,0
13.11.2019 00:00:00 6,2 3,2 5,5 4,6 6,0 10,2 7,8 20 11 35 19 S 1004,3 24 0 0,0
12.11.2019 23:00:00 6,2 3,3 5,6 4,6 6,0 10,2 7,8 26 14 38 21 SSW 1004,2 24 0 0,0
12.11.2019 22:00:00 6,3 3,5 5,5 4,5 6,1 10,2 7,7 22 12 34 19 S 1004,8 27 0 0,0
12.11.2019 21:00:00 6,4 3,8 5,6 4,6 6,1 10,2 7,8 23 13 38 21 S 1005,1 24 0 0,0
12.11.2019 20:00:00 6,2 3,8 5,3 4,5 6,2 10,2 7,9 23 12 38 20 S 1005,2 22 0 0,0
12.11.2019 19:00:00 6,3 3,6 5,4 4,6 6,3 10,3 7,8 23 12 36 19 S 1005,4 24 0 0,0
12.11.2019 18:00:00 6,1 3,3 5,0 4,7 6,4 10,3 7,9 19 11 38 20 S 1005,3 20 0 0,0
12.11.2019 17:00:00 5,9 2,9 5,0 5,0 6,5 10,3 7,8 26 14 40 21 S 1005,2 19 0 0,0
12.11.2019 16:00:00 5,9 3,1 5,1 6,0 6,5 10,3 8,0 23 12 37 20 S 1005,3 18 50 0,0
12.11.2019 15:00:00 6,1 2,9 6,5 6,9 6,4 10,3 8,2 21 12 34 18 S 1005,0 18 60 0,0
12.11.2019 14:00:00 6,7 3,1 7,3 7,5 6,1 10,3 8,1 18 10 31 17 S 1004,9 17 60 0,0
12.11.2019 13:00:00 6,1 2,5 7,3 6,7 5,8 10,3 8,0 20 11 37 20 SSW 1005,2 18 60 0,0
12.11.2019 12:00:00 5,3 2,2 6,2 5,5 5,6 10,4 7,7 29 16 41 22 SSW 1005,5 18 24 0,0
12.11.2019 11:00:00 4,7 2,2 4,9 4,5 5,6 10,4 7,5 35 19 44 24 SSW 1005,4 15 0 0,0
12.11.2019 10:00:00 4,3 1,8 4,2 4,0 5,6 10,4 7,5 34 18 44 24 SSW 1005,2 15 0 0,0
12.11.2019 09:00:00 4,1 1,7 3,9 3,7 5,6 10,4 7,3 34 18 45 25 SSW 1005,1 14 0 0,0
12.11.2019 08:00:00 3,9 1,6 3,6 3,6 5,6 10,4 7,3 32 18 45 24 SSW 1004,8 12 0 0,0
12.11.2019 07:00:00 3,9 1,5 3,6 3,7 5,7 10,4 7,2 26 14 44 24 S 1004,4 14 0 0,0
12.11.2019 06:00:00 4,0 1,4 3,8 3,8 5,7 10,4 7,2 26 14 40 21 S 1004,2 14 0 0,0
12.11.2019 05:00:00 4,3 1,6 4,0 3,9 5,8 10,4 7,4 25 13 45 24 S 1004,4 15 0 0,0
12.11.2019 04:00:00 4,8 2,0 4,3 3,8 5,8 10,5 7,4 26 14 45 25 S 1004,6 15 0 0,0
12.11.2019 03:00:00 4,9 1,9 4,1 3,8 5,9 10,5 7,4 27 14 45 25 S 1004,8 16 0 0,0
12.11.2019 02:00:00 5,3 2,0 4,5 4,0 6,0 10,5 7,0 26 14 45 25 S 1005,2 17 0 0,0
12.11.2019 01:00:00 5,4 2,3 4,5 4,1 6,0 10,5 7,5 24 13 45 25 S 1005,6 14 0 0,0
12.11.2019 00:00:00 5,7 2,6 4,7 4,2 6,1 10,5 7,7 27 15 51 28 SSE 1006,1 10 0 0,0
11.11.2019 23:00:00 5,9 3,3 4,7 4,1 6,1 10,5 7,7 32 17 57 31 SSE 1006,3 10 0 0,0
11.11.2019 22:00:00 6,3 3,3 5,1 4,3 6,2 10,5 7,8 37 20 52 28 SE 1006,8 10 0 0,0

tt = Température de l'air
td = dewpoint
tt 5cm = Température de l'air 5cm
tt -5cm = Température de l'air -5cm
tt -20cm = Température de l'air -20cm
tt -100cm = Température de l'air -100cm
tw = water temperature
ff = Vitesse du vent
fx = gusts
dd = Direction du vent
ppp = reduced air pressure
vv = visibility
sd = Ensoleillement
rr = Quantités de précipitations

stations d'obs. à proximité